sat.trackr.live / text

‹ back to catalog

QIANFAN-113

NORAD 68640 · 2026-075E

PAYLOAD ACTIVE UNKNOWN

§ Identity

Operator
Country
PRC
Launch date
2026-04-07
Launch site
WSC
Launch vehicle
Mass (kg)
RCS (m²)

External: N2YO · Heavens-Above · Gunter

§ Orbital elements

Epoch: 2026-09-20T04:03:19.785600Z

Period
106.59 min
Inclination
88.9868°
Eccentricity
0.0002287
Mean motion
13.51020290 rev/d
Perigee alt
1,066.8 km
Apogee alt
1,070.2 km
Semi-major
7,446.6 km
B*
7.4452e-5
RAAN
311.3077°
Arg perigee
94.0748°
Mean anomaly
266.0665°
Rev number
2,263

§ Raw data

QIANFAN-1131 68640U 26075E   26263.16897900  .00000060  00000+0  74452-4 0  99942 68640  88.9868 311.3077 0002287  94.0748 266.0665 13.51020290 22633

JSON: /api/v1/satellites/68640 · /tle

For live sub-satellite position, see the globe view (requires WebGL).

§ Visibility from observer

Set your observer location to see the next 7 days of passes ≥ 10°. The values pass through the URL so the page stays shareable.

No JS? Fill the form by hand. The geolocation button needs JavaScript.